Home   Weather   Bingen am Rhein   Past weeks

Flag for Germany Past Weather in Bingen am Rhein, Rhineland-Palatinate, Germany — Yesterday and Last 2 Weeks

Now
52 °F

Light rain. Cloudy.


Feels Like: 49 °F
Forecast: 34 / 55 °F
Wind: 7 mph from Southeast

Location: Wiesbaden Airport

Current Time: Apr 27, 2017 at 6:44:10 pm

Latest Report: Apr 27, 2017 at 6:08 pm


Visibility: N/A

Pressure: 29.94 "Hg

Humidity: 38%

Dew Point: 27 °F

Location of Bingen am RheinLocation

Past Weather in Bingen am Rhein — Graph

°F

Bingen am Rhein Temperature Yesterday

Maximum temperature yesterday: 53 °F (at 1:58 pm)
Minimum temperature yesterday: 40 °F (at 6:58 am)
Average temperature yesterday: 46 °F

High & Low Weather Summary for the Past Weeks

 TemperatureHumidityPressure
High64 °F (Apr 12, 5:58 pm)96% (Apr 17, 8:58 am)30.63 "Hg (Apr 17, 8:58 am)
Low31 °F (Apr 24, 6:58 am)26% (Apr 20, 5:58 pm)29.71 "Hg (Apr 25, 4:58 am)
Average46 °F62%30.13 "Hg
* Reported Apr 12 5:58 pm — Apr 27 5:58 pm, Bingen am Rhein, Weather by CustomWeather, © 2017

Note: Actual official high and low records may vary slightly from our data, if they occured in-between our weather recording intervals... More about our weather records

Advertising

Bingen am Rhein Weather History for the Previous 24 Hours

Scroll right to see more
 ConditionsComfort  
Time TempWeatherWind HumidityBarometerVisibility
5:58 pm
Thu, Apr 27
53 °FBroken clouds.6 mph33%29.96 "HgN/A
4:58 pm55 °FOvercast.No wind33%29.96 "HgN/A
3:58 pm54 °FPartly sunny.7 mph33%29.96 "HgN/A
2:58 pm54 °FScattered clouds.No wind35%29.97 "HgN/A
1:58 pm52 °FPassing clouds.5 mph34%29.97 "HgN/A
11:58 am50 °FPartly sunny.6 mph40%30.00 "HgN/A
10:58 am50 °FSunny.5 mph45%30.00 "HgN/A
9:58 am47 °FSunny.5 mph55%29.99 "HgN/A
8:58 am45 °FScattered clouds.7 mph61%29.99 "HgN/A
7:58 am40 °FPartly sunny.No wind70%29.98 "HgN/A
6:58 am37 °FScattered clouds.6 mph75%29.98 "HgN/A
5:58 am38 °FOvercast.6 mph72%29.97 "HgN/A
4:58 am39 °FPassing clouds.7 mph70%29.94 "HgN/A
2:58 am43 °FPassing clouds.7 mph61%29.93 "HgN/A
1:58 am44 °FPassing clouds.7 mph59%29.94 "HgN/A
12:58 am44 °FMostly cloudy.3 mph58%29.94 "HgN/A
11:58 pm
Wed, Apr 26
45 °FMostly cloudy.No wind59%29.94 "HgN/A
10:58 pm46 °FMostly cloudy.No wind53%29.94 "HgN/A
9:58 pm47 °FMostly cloudy.5 mph47%29.93 "HgN/A
8:58 pm48 °FMostly cloudy.3 mph46%29.90 "HgN/A
7:58 pm50 °FOvercast.5 mph37%29.89 "HgN/A
6:58 pm51 °FOvercast.6 mph33%29.88 "HgN/A
Weather by CustomWeather, © 2017

See weather overviewHow to use our weather pages